Change the Weather History Date:

Wednesday, February 6, 2013

  Actual Average Record
Temperature  
Mean Temperature 26 °F -  
Max Temperature 39 °F 27 °F 44 °F (2012)
Min Temperature 14 °F 11 °F -11 °F (2014)
Degree Days  
Heating Degree Days 38    
Moisture  
Dew Point 26 °F    
Average Humidity 85    
Maximum Humidity 93    
Minimum Humidity 75    
Precipitation  
Precipitation 0.00 in - - ()
Sea Level Pressure  
Sea Level Pressure 29.95 in    
Wind  
Wind Speed 10 mph (SSE)    
Max Wind Speed 26 mph    
Max Gust Speed 34 mph    
Visibility 10 miles    
Events Snow    
Averages and records for this station are not official NWS values.
T = Trace of Precipitation, MM = Missing Value Source: NWS Daily Summary

Daily Weather History Graph

Daily Weather History Graph

Search for Another Location

Airport or City:

Trip Planner

Search our weather history database for the weather conditions in past years. The results will help you decide how hot, cold, wet, or windy it might be!

Date:

Astronomy

Feb. 06, 2013 Rise Set
Actual Time 7:26 AM CST 5:36 PM CST
Civil Twilight 6:56 AM CST 6:06 PM CST
Nautical Twilight 6:22 AM CST 6:40 PM CST
Astronomical Twilight 5:49 AM CST 7:13 PM CST
Moon 4:13 AM CST (2/6) 1:52 PM CST (2/6)
Length of Visible Light 11h 09m
Length of Day
10h 10m
Waning Crescent, 17% of the Moon is Illuminated
Feb 6
Waning Crescent
Feb 10
New
Feb 17
First Quarter
Feb 25
Full
Mar 4
Last Quarter

Hourly Weather History & Observations

Time (CST) Temp. Windchill Dew Point Humidity Pressure Visibility Wind Dir Wind Speed Gust Speed Precip Events Conditions
12:15 AM 15.8 °F 10.2 °F 14.0 °F 93% 30.07 in 10.0 mi East 3.5 mph - N/A Snow Light Snow
12:35 AM 15.8 °F 8.6 °F 14.0 °F 93% 30.06 in 10.0 mi East 4.6 mph - N/A Snow Light Snow
12:55 AM 15.8 °F 8.6 °F 14.0 °F 93% 30.06 in 10.0 mi East 4.6 mph - N/A   Clear
1:15 AM 15.8 °F 8.6 °F 12.2 °F 86% 30.06 in 10.0 mi SE 4.6 mph - N/A   Clear
1:55 AM 15.8 °F 8.6 °F 12.2 °F 86% 30.06 in 10.0 mi SE 4.6 mph - N/A   Clear
2:15 AM 15.8 °F 7.2 °F 12.2 °F 86% 30.05 in 10.0 mi ESE 5.8 mph - N/A Snow Light Snow
2:35 AM 14.0 °F 5.1 °F 12.2 °F 93% 30.06 in 10.0 mi South 5.8 mph - N/A   Clear
2:55 AM 15.8 °F 8.6 °F 12.2 °F 86% 30.07 in 10.0 mi SSE 4.6 mph - N/A Snow Light Snow
3:15 AM 15.8 °F 5.1 °F 12.2 °F 86% 30.07 in 10.0 mi South 8.1 mph - N/A Snow Light Snow
3:35 AM 14.0 °F 3.9 °F 12.2 °F 93% 30.07 in 10.0 mi South 6.9 mph - N/A Snow Light Snow
3:55 AM 15.8 °F 6.1 °F 12.2 °F 86% 30.06 in 10.0 mi SSE 6.9 mph - N/A Snow Light Snow
4:15 AM 17.6 °F 7.3 °F 14.0 °F 86% 30.04 in 10.0 mi SSE 8.1 mph - N/A   Mostly Cloudy
4:35 AM 17.6 °F 6.4 °F 14.0 °F 86% 30.05 in 10.0 mi South 9.2 mph - N/A Snow Light Snow
4:55 AM 17.6 °F 5.7 °F 14.0 °F 86% 30.06 in 10.0 mi South 10.4 mph - N/A   Overcast
5:15 AM 17.6 °F 5.7 °F 15.8 °F 93% 30.07 in 10.0 mi South 10.4 mph - N/A   Overcast
5:35 AM 19.4 °F 9.5 °F 15.8 °F 86% 30.05 in 10.0 mi South 8.1 mph - N/A   Overcast
5:55 AM 19.4 °F 10.4 °F 15.8 °F 86% 30.05 in 10.0 mi SSE 6.9 mph - N/A   Overcast
6:15 AM 19.4 °F 9.5 °F 15.8 °F 86% 30.04 in 10.0 mi SE 8.1 mph - N/A   Overcast
6:35 AM 19.4 °F 9.5 °F 15.8 °F 86% 30.04 in 10.0 mi SSE 8.1 mph - N/A Snow Light Snow
6:55 AM 19.4 °F 8.6 °F 15.8 °F 86% 30.05 in 10.0 mi South 9.2 mph - N/A   Overcast
7:15 AM 21.2 °F 9.5 °F 15.8 °F 80% 30.04 in 10.0 mi SSE 11.5 mph - N/A   Overcast
7:35 AM 21.2 °F 8.3 °F 15.8 °F 80% 30.03 in 10.0 mi SSE 13.8 mph - N/A   Overcast
7:55 AM 21.2 °F 9.5 °F 15.8 °F 80% 30.02 in 10.0 mi SSE 11.5 mph - N/A   Overcast
8:15 AM 23.0 °F 10.6 °F 17.6 °F 80% 30.02 in 10.0 mi SSE 13.8 mph - N/A   Overcast
8:35 AM 23.0 °F 10.6 °F 19.4 °F 86% 30.02 in 9.0 mi SSE 13.8 mph - N/A   Overcast
8:55 AM 24.8 °F 11.9 °F 21.2 °F 86% 30.01 in 9.0 mi SSE 16.1 mph - N/A   Overcast
9:15 AM 26.6 °F 13.8 °F 23.0 °F 86% 29.99 in 9.0 mi SSE 17.3 mph 23.0 mph N/A   Overcast
9:35 AM 26.6 °F 13.8 °F 23.0 °F 86% 29.98 in 9.0 mi SE 17.3 mph - N/A   Mostly Cloudy
9:55 AM 28.4 °F 15.1 °F 24.8 °F 86% 29.98 in 9.0 mi SSE 20.7 mph - N/A   Overcast
10:35 AM 32.0 °F 20.8 °F 28.4 °F 87% 29.98 in 10.0 mi SSE 17.3 mph - N/A   Overcast
10:55 AM 33.8 °F 23.2 °F 28.4 °F 81% 29.98 in 10.0 mi SSE 17.3 mph 24.2 mph N/A   Overcast
11:15 AM 33.8 °F 22.8 °F 28.4 °F 81% 29.97 in 9.0 mi SSE 18.4 mph - N/A   Overcast
11:35 AM 35.6 °F 24.8 °F 30.2 °F 81% 29.96 in 9.0 mi South 19.6 mph - N/A   Overcast
11:55 AM 35.6 °F 24.5 °F 30.2 °F 81% 29.94 in 10.0 mi SSE 20.7 mph - N/A   Overcast
12:15 PM 35.6 °F 25.2 °F 30.2 °F 81% 29.93 in 10.0 mi South 18.4 mph 25.3 mph N/A   Scattered Clouds
12:35 PM 37.4 °F 27.5 °F 32.0 °F 81% 29.92 in 10.0 mi South 18.4 mph 25.3 mph N/A   Partly Cloudy
12:55 PM 39.2 °F 29.3 °F 32.0 °F 75% 29.90 in 10.0 mi South 20.7 mph 27.6 mph N/A   Scattered Clouds
1:15 PM 39.2 °F 28.5 °F 32.0 °F 75% 29.88 in 10.0 mi South 24.2 mph - N/A   Partly Cloudy
1:35 PM 39.2 °F 28.0 °F 32.0 °F 75% 29.87 in 10.0 mi South 26.5 mph 34.5 mph N/A   Clear
1:55 PM 39.2 °F 29.3 °F 32.0 °F 75% 29.86 in 10.0 mi South 20.7 mph 32.2 mph N/A   Partly Cloudy
2:15 PM 39.2 °F 29.3 °F 32.0 °F 75% 29.85 in 10.0 mi South 20.7 mph 29.9 mph N/A   Partly Cloudy
2:35 PM 39.2 °F 29.3 °F 33.8 °F 81% 29.86 in 10.0 mi South 20.7 mph 27.6 mph N/A   Partly Cloudy
2:55 PM 39.2 °F 29.3 °F 33.8 °F 81% 29.85 in 10.0 mi South 20.7 mph - N/A   Scattered Clouds
3:15 PM 39.2 °F 28.0 °F 33.8 °F 81% 29.83 in 9.0 mi South 26.5 mph 33.4 mph N/A   Scattered Clouds
3:35 PM 39.2 °F 28.0 °F 33.8 °F 81% 29.83 in 10.0 mi South 26.5 mph - N/A   Scattered Clouds
3:55 PM 39.2 °F 28.3 °F 33.8 °F 81% 29.82 in 10.0 mi South 25.3 mph 32.2 mph N/A   Partly Cloudy
4:15 PM 39.2 °F 28.7 °F 33.8 °F 81% 29.83 in 10.0 mi South 23.0 mph 29.9 mph N/A   Partly Cloudy
4:35 PM 39.2 °F 29.3 °F 33.8 °F 81% 29.83 in 10.0 mi South 20.7 mph 26.5 mph N/A   Clear
4:55 PM 39.2 °F 29.0 °F 33.8 °F 81% 29.83 in 10.0 mi South 21.9 mph - N/A   Mostly Cloudy
5:15 PM 39.2 °F 29.8 °F 33.8 °F 81% 29.84 in 10.0 mi South 18.4 mph - N/A   Mostly Cloudy
5:35 PM 39.2 °F 32.5 °F 33.8 °F 81% 29.87 in 10.0 mi SSW 10.4 mph - N/A   Overcast
5:55 PM 39.2 °F 35.9 °F 33.8 °F 81% 29.88 in 10.0 mi WSW 4.6 mph - N/A   Overcast
6:15 PM 37.4 °F 33.8 °F 33.8 °F 87% 29.89 in 10.0 mi WSW 4.6 mph - N/A   Overcast
6:35 PM 37.4 °F 34.9 °F 33.8 °F 87% 29.90 in 10.0 mi WSW 3.5 mph - N/A   Overcast
6:55 PM 37.4 °F 33.8 °F 33.8 °F 87% 29.90 in 10.0 mi South 4.6 mph - N/A   Overcast
7:15 PM 37.4 °F 32.8 °F 33.8 °F 87% 29.90 in 10.0 mi South 5.8 mph - N/A   Overcast
7:35 PM 37.4 °F 31.4 °F 33.8 °F 87% 29.91 in 10.0 mi South 8.1 mph - N/A   Overcast
7:55 PM 39.2 °F 33.6 °F 33.8 °F 81% 29.91 in 10.0 mi South 8.1 mph - N/A   Overcast
8:15 PM 37.4 °F 32.8 °F 33.8 °F 87% 29.90 in 10.0 mi South 5.8 mph - N/A   Overcast
8:35 PM 37.4 °F 32.1 °F 33.8 °F 87% 29.91 in 10.0 mi South 6.9 mph - N/A   Overcast
8:55 PM 37.4 °F 32.1 °F 33.8 °F 87% 29.90 in 10.0 mi South 6.9 mph - N/A   Overcast
9:15 PM 37.4 °F 31.4 °F 33.8 °F 87% 29.91 in 10.0 mi South 8.1 mph - N/A   Overcast
9:35 PM 37.4 °F 32.1 °F 33.8 °F 87% 29.91 in 10.0 mi South 6.9 mph - N/A   Overcast
9:55 PM 37.4 °F 31.4 °F 33.8 °F 87% 29.91 in 10.0 mi South 8.1 mph - N/A   Overcast
10:15 PM 37.4 °F 31.4 °F 33.8 °F 87% 29.91 in 10.0 mi South 8.1 mph - N/A   Mostly Cloudy
10:35 PM 35.6 °F 29.9 °F 33.8 °F 93% 29.91 in 10.0 mi South 6.9 mph - N/A   Overcast
10:55 PM 35.6 °F 30.7 °F 33.8 °F 93% 29.90 in 10.0 mi South 5.8 mph - N/A   Overcast
11:15 PM 35.6 °F 30.7 °F 33.8 °F 93% 29.90 in 10.0 mi South 5.8 mph - N/A   Overcast
11:35 PM 35.6 °F 32.8 °F 33.8 °F 93% 29.90 in 9.0 mi SSE 3.5 mph - N/A   Overcast
11:55 PM 35.6 °F 31.7 °F 33.8 °F 93% 29.91 in 10.0 mi NNE 4.6 mph - N/A   Overcast